Wind_Speed
2 1 1 1 3 3 2 3 2 3 2 1 3 1 4 4 3 2 2 3 1 2 3 1 1 3 2 3 6 6 5 5 5 5 3 4 14 21 21 19 20 22 23 21 20 20 20 18 17 16 15 15 15 15 14 13 13 13 13 13 13 13 13 12 11 11 10 10 10 10 9 9 9 8 7 7 7 7 7 7 7 7 7 7 6 5 4 5 5 5 4 3 3 2 1 1 1
1 0 2 1 3 3 1 3 2 4 4 3 4 3 5 3 1 5 6 6 4 4 2 1 3 5 5 6 6 4 1 2 3 4 2 8 16 17 20 20 21 22 22 21 20 20 19 18 17 17 16 16 15 15 14 13 13 12 12 12 12 12 12 12 11 11 10 10 10 9 8 8 8 7 7 6 5 6 6 6 6 7 7 6 6 5 5 6 6 5 3 3 2 1 1 1 1
1 1 2 1 2 3 1 4 1 1 2 3 4 4 3 2 5 7 7 7 7 3 2 2 1 4 5 4 2 3 2 2 2 3 1 12 14 17 24 20 21 21 21 21 19 20 20 19 18 18 18 17 17 16 15 14 14 13 12 12 13 12 11 12 11 10 9 10 9 9 8 8 7 7 6 6 5 5 6 6 6 6 6 6 5 4 3 3 4 2 1 1 1 1 1 1 1
1 2 4 2 2 3 4 3 1 3 1 3 3 6 3 4 7 6 7 7 6 1 1 2 0 1 4 2 2 2 3 3 5 7 4 16 18 23 28 21 22 20 20 21 19 20 20 20 19 19 18 18 18 17 17 14 14 14 13 13 13 13 12 12 11 10 9 9 9 8 8 8 8 7 6 6 5 5 5 5 6 6 6 6 6 3 1 2 2 2 2 1 1 1 1 2 2
1 2 4 3 2 1 3 1 2 3 3 4 2 6 6 7 7 6 5 5 5 3 3 3 0 2 2 3 3 1 5 2 6 11 8 19 22 26 29 24 24 22 22 21 20 21 20 21 20 20 20 19 18 17 17 15 15 14 14 14 14 13 13 13 12 11 10 10 9 9 8 8 8 7 7 6 6 6 6 5 6 6 7 7 6 5 5 5 3 2 2 1 2 3 3 4 4
1 1 3 4 2 1 2 1 1 2 5 5 2 6 7 6 7 6 3 4 3 2 3 3 2 2 0 2 1 2 5 2 6 11 10 19 24 28 29 25 26 23 23 22 20 20 21 22 21 21 20 19 18 17 18 16 16 15 15 15 14 14 13 14 13 13 12 11 11 10 9 9 8 8 7 7 6 6 6 6 6 6 6 7 7 7 7 5 3 1 1 2 3 3 4 4 5
2 1 2 4 2 2 3 3 4 4 5 6 5 6 8 7 6 5 3 2 1 3 1 2 2 5 2 2 1 2 3 4 6 7 12 20 28 31 28 26 26 24 23 22 21 20 21 21 21 20 19 19 18 17 18 17 17 16 16 16 15 15 15 16 15 15 14 13 13 12 10 9 8 7 7 7 6 6 6 6 5 5 6 6 6 6 5 4 2 1 2 3 3 3 3 4 4
4 1 1 4 1 2 3 3 4 4 5 5 6 6 8 7 6 6 5 3 1 2 1 2 2 3 4 1 2 3 3 7 4 6 14 23 32 33 29 28 27 25 25 23 21 21 21 21 20 18 19 19 18 18 18 18 18 18 18 17 17 17 16 16 15 15 14 13 11 10 10 9 8 7 7 6 6 5 5 5 5 5 5 5 5 5 4 3 2 2 2 3 3 3 4 4 4
3 2 1 3 1 2 1 3 4 4 5 6 6 7 5 6 6 6 6 3 2 3 4 4 4 2 3 1 3 4 3 9 6 8 19 26 34 35 31 31 29 28 26 24 23 22 22 22 20 18 19 19 19 19 19 19 19 18 18 17 17 16 16 14 13 12 11 11 10 10 10 9 9 8 7 7 6 6 5 5 5 5 5 5 5 4 4 3 3 4 4 4 4 4 4 5 5
3 3 2 1 2 2 4 3 4 4 6 6 7 8 5 7 6 5 6 4 3 3 4 3 2 2 2 2 4 2 4 10 10 16 23 28 34 35 33 32 30 30 27 25 24 23 24 23 22 21 20 19 19 19 19 20 19 19 18 17 17 16 15 14 13 12 12 12 11 11 10 10 9 9 8 7 7 7 7 6 6 6 6 6 6 6 5 5 5 5 5 5 5 6 6 6 6
3 3 2 2 2 1 4 4 5 5 6 5 6 7 5 7 5 3 3 4 3 3 2 2 2 4 2 2 4 2 5 13 17 23 26 31 34 34 34 32 31 30 28 27 25 25 25 25 23 22 22 21 21 20 20 20 20 19 19 18 17 16 16 14 14 13 13 13 12 12 11 11 10 10 9 9 9 8 8 8 8 8 8 8 8 7 7 6 6 5 5 5 6 6 6 6 6
2 3 4 3 2 3 4 3 6 6 7 5 5 4 5 7 4 4 5 4 4 3 4 5 3 4 2 4 4 2 7 18 21 23 28 33 34 33 33 32 31 29 28 27 26 26 26 26 24 23 22 22 22 22 22 21 20 20 19 19 18 17 16 15 15 14 14 14 13 13 12 12 12 11 11 10 10 10 9 9 9 9 8 8 8 8 7 7 7 7 6 6 6 6 6 5 6
3 1 5 1 3 3 3 3 5 5 6 4 5 3 5 7 5 7 6 4 4 4 6 8 4 3 3 4 3 2 7 20 22 24 30 33 33 32 31 30 30 28 27 27 27 26 26 27 25 24 23 23 23 23 23 22 21 20 19 18 18 17 17 16 16 15 15 15 14 14 14 14 13 13 12 12 11 11 10 9 9 9 9 9 8 8 8 8 8 8 7 7 6 6 6 6 6
2 2 5 1 1 1 3 3 4 2 5 6 4 2 4 4 5 6 6 3 7 6 5 7 6 2 3 2 3 4 9 21 24 27 31 32 30 29 29 30 29 28 27 27 27 27 27 26 26 26 25 25 24 24 23 22 21 20 19 18 17 17 17 17 16 16 16 16 15 14 14 14 14 14 13 13 12 11 11 10 10 9 9 9 9 8 8 8 8 7 7 7 7 7 6 6 6
2 1 4 1 2 2 3 4 3 2 4 6 3 1 2 4 2 3 6 6 8 5 1 3 6 2 3 4 5 6 13 25 26 28 31 29 26 26 28 29 28 28 27 27 27 27 27 27 27 27 27 26 26 25 24 23 21 20 19 17 17 17 17 17 18 18 17 16 15 15 14 14 14 13 13 13 12 11 11 11 10 10 10 9 8 8 8 7 7 6 6 6 5 5 5 5 5
2 3 4 1 2 2 3 4 2 1 5 6 3 1 1 7 1 3 5 4 3 3 1 4 5 3 4 7 6 6 15 29 28 29 30 25 23 23 26 28 28 28 28 27 27 27 28 28 28 28 28 27 26 25 24 23 22 20 19 18 18 18 18 19 19 18 18 17 16 16 16 15 15 14 14 13 13 12 12 11 11 11 10 9 9 8 8 7 7 6 6 6 5 5 5 5 5
3 4 2 1 2 2 4 4 2 2 5 6 5 1 4 7 3 2 1 2 2 2 2 5 4 2 3 4 4 4 20 31 30 29 27 24 23 22 24 27 28 28 29 29 29 29 29 30 30 29 29 27 26 25 25 24 22 21 20 19 19 19 19 20 20 19 19 18 17 17 17 17 17 16 15 14 14 13 13 12 11 10 9 9 9 8 8 8 7 7 7 7 6 6 6 6 6
3 3 2 3 3 4 5 7 5 3 3 5 4 4 7 6 4 1 2 2 3 3 4 5 5 2 1 0 3 14 27 32 31 30 26 24 23 22 24 27 30 31 32 31 31 31 31 32 32 31 31 29 28 27 26 24 23 22 21 20 20 21 21 21 21 20 20 19 19 19 19 19 18 17 17 16 15 14 13 12 11 11 10 9 9 9 9 8 8 8 8 8 8 8 7 7 7
2 3 2 4 6 5 5 6 5 3 4 6 5 4 6 7 4 1 2 6 4 5 6 4 6 7 1 4 11 21 29 32 32 31 27 26 26 25 25 27 30 31 33 35 35 34 34 35 35 34 33 31 30 28 27 25 24 23 22 22 22 22 22 22 22 22 21 22 21 21 21 20 19 18 17 17 15 14 14 12 12 11 10 10 10 9 9 9 9 9 9 8 8 8 8 8 8
3 3 2 6 7 6 5 6 7 6 5 4 6 3 4 7 3 2 3 7 7 8 8 4 7 12 7 5 11 20 25 27 29 29 27 28 29 29 28 29 31 34 38 39 38 37 36 37 37 36 35 33 32 30 29 27 26 25 24 24 24 24 24 23 23 23 24 24 23 23 22 21 20 19 18 16 15 14 13 12 12 11 10 10 10 9 9 9 9 9 9 8 8 8 8 8 8
2 4 6 7 5 5 9 9 8 8 5 4 4 0 3 6 3 3 2 5 11 10 9 10 11 14 10 7 10 17 20 21 25 26 26 27 28 29 31 34 37 38 38 37 37 38 38 38 38 38 36 35 34 33 31 29 28 27 27 26 26 26 26 25 25 26 26 26 25 25 23 21 20 19 17 16 15 14 13 12 12 11 10 10 9 9 9 9 9 9 9 8 9 9 8 8 7
2 5 8 8 4 4 9 7 7 6 3 3 3 3 5 3 2 4 6 6 14 9 7 12 13 13 10 11 12 14 15 17 20 23 25 27 29 31 32 33 33 33 33 36 39 40 40 40 39 39 38 37 36 34 32 31 30 30 29 29 29 28 28 28 28 28 28 26 26 25 23 21 20 19 17 16 15 13 13 13 11 10 9 8 8 8 8 8 9 9 9 9 9 9 8 7 7
3 6 6 8 6 7 8 4 5 3 3 5 4 4 2 1 5 5 8 13 19 10 7 11 13 14 11 12 13 13 14 15 18 24 28 29 31 33 35 34 34 34 36 39 40 41 41 41 40 40 39 38 37 35 33 33 32 31 30 30 30 31 30 30 30 30 28 25 24 23 22 21 20 19 18 16 15 14 14 13 11 9 8 7 7 7 7 8 8 9 9 9 9 8 7 6 6
6 6 5 7 8 10 11 7 6 3 6 8 3 3 3 6 7 2 7 18 22 12 5 8 10 11 9 10 13 15 16 17 22 30 34 35 37 40 40 38 38 37 36 38 39 40 42 43 42 41 40 40 38 36 35 34 33 32 31 31 31 31 31 31 31 29 27 25 24 24 23 22 21 20 19 17 16 16 15 13 11 9 8 6 6 6 6 7 7 8 9 9 8 7 6 6 5
7 8 6 5 6 9 9 7 7 6 7 5 2 7 9 10 4 3 13 22 21 10 6 9 7 5 7 10 14 15 15 18 22 28 32 35 37 37 35 34 33 33 36 39 38 40 43 43 43 43 42 41 39 38 36 36 34 33 33 32 32 31 31 31 30 29 27 26 27 26 25 24 22 21 20 19 18 17 15 14 11 9 8 7 5 5 5 6 6 7 8 8 8 7 6 6 5
7 8 5 4 6 8 8 7 9 7 5 3 3 13 12 7 2 8 19 24 18 6 8 11 8 7 8 10 13 14 15 17 20 25 30 33 31 29 32 32 32 35 39 39 39 41 42 43 44 45 44 42 41 39 38 37 36 35 34 33 32 32 31 30 30 29 29 28 29 28 27 25 23 22 21 20 19 18 16 14 12 11 8 7 6 4 4 4 5 6 7 8 7 7 6 6 6
4 4 6 7 8 9 7 8 9 5 4 6 7 15 13 4 3 9 19 16 7 5 10 10 8 11 11 11 11 12 14 18 24 25 24 24 25 29 33 32 35 39 38 37 40 41 41 43 46 46 45 43 42 41 40 39 37 36 35 34 33 32 31 30 30 30 30 30 30 28 27 25 23 22 21 21 20 18 17 15 13 11 9 8 6 4 3 3 4 5 6 7 6 6 6 6 6
1 2 7 10 7 8 11 10 8 2 4 9 10 13 11 0 5 13 21 11 1 5 9 7 8 11 12 12 11 9 11 20 26 21 18 21 28 34 34 36 40 39 37 40 42 40 41 44 46 46 45 44 43 43 41 40 39 37 36 35 34 33 32 32 31 31 31 31 30 29 28 26 24 23 22 21 20 19 17 16 14 12 10 8 6 4 3 3 4 4 5 6 6 5 5 6 6
2 2 6 14 8 9 18 12 6 5 4 7 9 7 9 4 11 19 21 12 2 5 9 9 9 10 11 10 10 8 11 18 18 18 24 31 35 36 37 42 42 39 41 42 39 39 42 44 45 45 45 45 44 44 43 41 40 38 37 36 35 34 33 33 33 32 32 32 31 30 28 27 25 24 23 21 20 19 17 16 15 13 11 8 6 4 3 3 3 3 4 5 4 4 4 5 6
4 2 1 10 8 10 18 5 3 5 4 7 9 3 9 10 17 19 17 11 5 7 12 13 11 9 10 9 8 9 12 13 15 23 32 35 37 37 39 42 40 40 41 37 37 41 43 43 44 45 45 46 45 44 43 42 41 39 38 37 36 35 35 34 34 33 32 32 32 30 29 27 26 24 23 22 21 20 19 17 15 14 12 9 7 5 3 2 2 2 3 4 4 4 4 5 7
3 2 0 4 2 10 14 2 6 3 3 8 8 4 10 13 16 15 13 9 6 9 14 14 13 10 9 9 9 11 11 13 20 29 33 36 38 36 38 38 37 39 38 37 42 44 43 43 44 44 46 46 45 45 44 43 42 41 39 38 37 36 35 35 34 33 32 32 32 31 30 28 26 25 24 23 22 21 20 18 17 15 12 10 8 5 4 2 0 1 3 3 4 4 4 7 8
1 1 4 2 4 9 14 4 6 7 4 5 7 4 9 15 17 12 8 6 8 10 14 13 14 13 10 10 9 11 12 14 21 27 31 37 38 35 37 38 37 39 40 42 43 42 42 43 44 45 46 46 46 45 45 44 42 41 40 39 38 37 36 36 35 33 32 32 33 32 31 29 28 26 25 24 23 22 20 19 17 15 13 11 8 6 4 2 1 2 3 3 4 3 4 7 8
2 4 6 5 5 4 8 9 6 9 3 3 7 6 6 11 16 10 4 7 9 9 13 13 14 13 12 10 9 11 11 12 15 20 30 37 37 38 39 40 40 41 43 44 42 41 42 43 44 45 47 48 47 45 45 44 43 42 41 39 38 38 37 36 35 34 33 33 34 33 31 30 29 27 26 25 24 23 21 19 18 16 13 11 9 7 4 2 1 2 2 3 3 3 5 7 8
5 3 5 6 6 4 3 9 6 4 5 6 10 10 10 13 14 11 5 6 8 8 11 13 12 12 10 9 10 11 11 13 13 16 29 35 36 39 40 41 42 42 42 43 43 43 44 44 46 46 46 47 46 45 44 43 42 41 40 39 39 38 37 36 35 34 34 34 34 33 32 31 30 28 27 26 24 23 21 20 18 16 14 12 10 7 5 3 1 0 1 2 2 4 6 7 11
8 5 4 4 5 6 6 8 5 1 5 8 8 10 15 17 16 15 11 7 7 10 11 11 11 11 10 9 11 11 11 15 15 19 28 30 32 36 38 39 39 39 40 41 42 42 42 43 44 44 44 44 44 43 42 41 40 39 39 38 37 37 37 36 36 36 35 35 34 34 33 32 30 29 28 27 26 24 22 21 19 17 15 12 10 8 6 4 2 1 1 1 2 4 5 8 11
9 6 4 4 6 7 8 10 7 3 7 9 10 13 15 16 17 18 17 12 10 12 11 10 11 11 11 11 12 13 14 16 18 23 27 24 27 33 35 36 37 38 38 39 39 40 41 42 42 42 42 43 42 41 40 39 37 37 37 37 37 38 38 38 37 37 36 35 34 34 34 32 31 30 29 28 26 25 23 22 20 18 16 13 11 9 7 5 4 3 2 2 2 2 3 7 10
7 5 6 7 8 9 9 12 10 4 6 9 11 16 17 16 18 17 17 14 13 14 13 13 13 13 13 14 15 16 17 18 18 22 23 23 26 30 33 34 34 34 34 36 38 41 43 43 43 42 42 43 43 43 42 40 39 38 37 39 40 40 40 40 38 38 37 36 35 34 35 33 32 31 30 29 28 26 24 22 21 19 17 14 12 10 8 7 6 5 4 3 2 1 2 5 9
9 8 8 9 8 12 13 12 12 5 4 9 10 16 19 16 16 15 14 15 16 16 16 17 16 14 13 14 18 18 16 16 17 18 16 18 23 26 29 32 33 34 36 39 42 43 43 43 44 44 43 45 46 46 45 44 44 43 42 43 42 41 41 41 40 40 38 37 35 35 35 34 32 32 31 30 28 27 25 24 22 20 18 16 13 12 10 9 8 6 5 4 2 1 3 4 8
9 6 7 8 6 11 12 10 13 6 4 8 10 14 18 15 15 14 13 16 18 17 17 19 17 14 13 15 17 17 16 16 18 19 14 12 18 23 26 29 34 38 39 41 42 41 41 42 43 43 45 47 47 47 47 46 45 44 43 41 41 39 39 40 39 39 38 37 36 35 35 35 33 33 32 30 29 28 27 25 23 21 19 17 15 13 12 10 9 8 6 5 3 1 3 4 6
7 6 6 8 7 8 9 7 8 5 4 6 9 12 14 12 12 11 13 17 18 16 17 17 14 13 16 17 16 16 18 18 18 20 14 8 12 18 23 28 33 34 34 36 37 38 41 43 44 44 46 47 47 47 47 45 42 40 38 36 37 36 35 36 35 35 37 36 36 35 35 35 35 34 33 31 31 29 27 26 24 22 20 17 15 14 12 11 10 8 7 5 4 1 3 3 3
9 8 7 10 12 12 12 7 6 6 5 5 7 13 13 10 13 13 11 15 16 14 15 16 15 14 16 16 16 17 20 20 18 19 14 7 9 14 21 26 29 30 32 36 40 41 43 43 44 44 45 46 46 46 44 42 39 37 33 30 30 30 29 31 32 34 37 37 38 38 37 37 36 35 34 33 32 30 28 26 24 22 20 18 17 14 12 11 10 9 7 6 4 2 2 3 1
10 8 12 18 17 14 14 10 8 7 6 3 2 10 11 6 11 12 8 9 12 11 12 17 17 16 15 15 17 19 19 19 18 18 13 8 8 12 18 22 26 29 34 38 41 41 41 41 43 43 43 43 43 43 43 42 40 39 36 33 32 30 28 33 39 40 41 41 41 40 39 37 36 36 35 34 32 30 28 27 24 23 21 20 18 15 14 13 11 10 9 7 5 2 0 1 1
11 7 14 18 14 11 12 9 5 3 6 3 3 3 10 5 6 9 7 8 11 10 11 16 17 15 14 14 17 17 16 16 15 14 11 8 9 9 13 21 27 30 32 34 35 36 37 39 41 41 42 42 41 42 43 42 41 41 41 39 38 36 34 37 40 39 40 41 39 39 39 38 37 36 36 35 33 31 29 27 25 23 22 20 18 16 15 14 12 11 10 9 6 2 1 1 0
8 4 10 11 10 9 7 6 5 4 4 4 4 5 8 13 7 9 11 11 11 12 14 16 16 15 14 16 17 16 15 15 12 11 10 9 10 11 14 22 28 28 28 30 32 35 37 39 41 41 41 41 41 42 43 43 43 42 42 40 39 40 38 36 34 33 36 38 38 38 39 39 38 37 36 35 33 31 29 28 26 24 22 20 19 17 15 14 14 13 12 10 7 4 1 1 1
7 4 7 6 6 6 4 5 5 1 5 5 4 7 3 15 7 8 10 10 10 14 17 18 16 16 16 17 17 16 17 15 11 10 10 9 9 12 16 20 24 25 27 32 35 36 36 37 39 39 39 40 41 42 44 44 44 44 43 41 38 38 36 32 31 32 34 36 37 38 39 39 39 37 36 35 33 32 30 29 27 25 24 22 20 18 17 16 15 14 13 11 9 5 2 2 2
4 6 5 4 3 2 4 3 2 2 6 6 5 7 3 14 8 5 4 6 9 13 14 15 15 15 15 15 15 15 15 14 9 8 8 7 9 12 15 17 21 24 27 30 31 32 34 35 37 38 38 39 40 43 44 44 44 43 42 42 39 36 33 30 29 31 33 35 37 37 38 39 39 38 37 35 33 32 30 29 28 26 25 23 21 20 19 18 17 15 14 12 10 7 4 3 3
1 4 2 5 5 4 4 1 4 2 9 6 9 11 6 8 6 4 4 5 6 8 9 10 12 13 14 13 13 14 14 13 7 4 4 5 6 10 14 16 19 22 23 26 28 31 33 35 37 38 38 39 40 42 44 45 45 44 43 43 41 37 34 31 31 32 33 35 36 37 37 38 38 39 38 37 34 33 31 30 28 26 25 23 22 21 20 19 17 16 15 14 11 7 5 4 4
2 2 1 3 5 4 5 4 4 2 9 5 11 13 10 8 6 1 4 6 3 6 8 10 12 13 14 13 13 13 12 10 5 4 5 6 6 9 12 14 18 20 23 26 28 31 32 34 36 37 36 38 40 42 45 46 45 45 44 43 41 39 36 36 36 36 36 37 37 35 35 36 36 38 39 38 37 35 33 31 29 27 26 24 23 22 20 19 18 17 16 14 12 9 6 6 5
4 4 3 0 4 3 3 3 1 4 9 6 8 9 8 11 7 3 9 11 8 9 9 11 13 13 14 14 12 11 10 7 4 5 6 7 7 9 9 12 18 21 24 27 29 31 32 34 36 37 37 38 40 42 44 45 46 46 44 42 41 39 38 39 39 38 39 39 38 37 37 38 38 39 41 42 41 39 37 35 32 30 28 26 24 22 21 20 19 18 16 15 12 10 8 6 6
6 5 5 5 3 3 4 4 2 5 8 6 5 6 5 8 5 6 11 12 10 7 7 10 11 11 12 12 10 10 9 5 5 6 6 8 9 9 9 12 17 20 24 28 30 32 33 34 36 37 38 39 41 42 43 44 46 46 44 42 41 39 39 40 40 40 40 40 40 41 42 42 42 44 45 45 44 42 39 37 35 32 30 27 25 23 22 21 20 18 16 15 13 10 8 7 7
6 5 5 6 6 4 4 4 6 7 6 5 1 4 5 4 3 7 9 8 8 6 7 8 9 10 11 11 11 12 10 5 3 6 7 9 9 9 9 13 17 21 25 28 30 32 34 35 38 38 39 40 41 42 43 46 47 45 44 42 41 41 41 41 41 41 41 41 42 43 44 44 45 46 46 46 45 43 41 39 36 34 31 28 26 24 23 22 21 19 17 15 13 11 9 8 7
3 4 4 5 6 5 4 7 8 5 3 3 3 4 6 5 6 7 5 6 7 8 8 7 8 11 10 10 12 11 8 5 5 6 8 8 8 8 9 13 17 20 24 28 31 34 36 37 39 41 42 42 43 44 45 47 46 44 44 44 43 43 42 42 42 42 42 43 43 44 45 45 45 45 45 45 45 44 43 41 38 36 33 30 28 26 25 24 22 20 18 16 14 12 10 9 9
2 3 4 4 3 6 5 8 5 2 5 6 5 7 6 4 8 6 3 6 7 7 8 7 8 10 10 10 10 9 8 6 6 7 7 7 8 8 10 14 18 21 26 30 34 38 39 39 39 40 40 40 43 46 46 45 43 43 45 46 46 45 45 45 45 44 43 42 42 43 43 43 43 43 44 45 45 45 44 42 40 37 34 32 30 28 27 25 23 21 19 17 15 13 12 11 10
5 3 6 2 3 2 3 3 2 4 8 6 7 15 10 4 7 6 7 9 8 8 9 8 8 8 9 10 9 9 9 7 7 7 6 6 7 8 10 15 20 24 28 32 35 36 36 37 39 39 39 41 45 46 44 43 43 44 45 46 47 47 48 47 45 43 42 41 41 42 42 42 42 42 42 42 43 44 44 43 41 39 36 34 32 30 28 26 24 22 20 18 16 15 14 12 12
5 3 3 3 1 2 2 3 3 6 9 5 7 16 12 6 7 6 6 7 7 8 7 7 9 7 7 9 9 9 7 6 6 6 5 6 7 7 9 13 19 24 27 29 30 30 32 35 37 38 41 43 42 40 40 41 42 44 45 47 48 48 47 46 44 42 41 42 43 42 41 41 41 41 41 41 42 42 43 42 41 39 37 36 34 32 30 28 26 24 22 21 19 17 16 14 13
1 1 1 0 3 4 3 3 3 5 9 7 8 10 8 6 6 6 8 7 7 6 4 6 8 7 7 7 7 8 6 6 6 5 6 7 8 8 11 16 19 22 24 24 25 29 33 34 34 36 39 38 38 39 41 42 43 44 44 45 46 47 47 46 43 42 42 43 43 42 41 41 40 41 41 41 42 43 43 42 41 39 38 37 36 34 32 30 28 26 24 23 21 19 17 16 15
1 3 4 3 2 1 1 2 2 4 7 7 8 8 7 6 4 6 9 7 8 5 2 5 7 6 7 6 4 6 6 6 7 6 7 8 8 9 13 17 18 18 21 23 27 30 32 33 35 38 37 36 38 41 43 44 45 45 44 44 46 46 45 44 42 42 43 42 42 41 41 41 41 41 42 42 42 43 43 43 41 40 39 38 37 36 34 31 30 28 26 24 22 20 18 17 16
4 5 5 5 6 4 5 6 5 4 5 6 7 7 6 6 6 6 7 8 8 6 4 6 7 7 7 6 4 6 6 7 8 7 8 8 8 8 10 12 14 17 20 25 27 29 30 34 38 38 37 38 40 42 44 46 46 45 46 47 45 43 42 42 42 42 42 42 42 42 41 41 41 42 42 43 43 43 43 43 42 41 40 39 38 37 35 33 31 30 27 25 23 21 20 18 18
Wind_Direction
177 159 12 346 349 10 17 63 61 316 73 288 270 218 261 231 197 171 226 251 251 262 240 286 86 97 94 139 161 164 153 164 168 149 213 200 145 160 174 174 175 175 173 173 175 174 172 167 162 160 157 154 154 153 153 151 148 147 145 145 144 144 143 139 140 143 147 144 137 133 130 132 132 132 127 127 133 131 129 120 110 109 115 116 108 108 112 111 113 116 115 119 126 127 118 47 359
165 76 2 342 6 33 287 76 90 326 38 318 283 186 253 284 189 193 206 216 218 211 203 200 89 63 64 89 119 129 157 224 167 154 217 150 144 166 178 180 179 177 177 176 179 180 179 176 173 170 166 164 161 158 154 156 159 157 156 153 152 150 149 147 144 150 152 146 141 133 130 133 136 134 126 130 141 144 145 139 124 104 103 113 104 102 115 117 117 116 117 127 141 143 119 64 28
124 57 22 25 30 46 52 46 89 33 44 283 277 243 261 270 220 219 218 220 226 183 116 192 105 62 77 64 109 128 208 261 150 139 113 158 163 174 176 181 180 180 181 180 181 181 181 179 178 177 175 174 172 167 157 159 163 162 160 158 157 152 152 151 148 151 147 144 141 136 132 133 141 136 132 131 130 147 157 156 148 112 92 103 100 99 123 127 126 121 121 154 184 163 84 32 347
73 31 16 47 54 28 64 43 146 129 212 241 267 271 257 218 221 230 233 233 236 194 124 177 166 127 114 174 197 91 212 253 186 161 150 185 186 174 173 178 179 183 183 183 183 182 182 180 178 176 176 176 174 168 158 159 164 163 163 160 159 154 153 150 149 149 141 140 139 140 138 137 143 131 130 131 132 152 159 156 156 140 117 115 114 117 107 95 108 92 75 27 263 291 330 316 308
42 28 7 49 93 31 95 73 116 126 216 201 233 271 252 222 215 219 241 259 249 229 203 148 158 244 119 196 180 139 209 238 195 178 174 192 184 169 172 177 180 183 182 183 182 182 182 178 175 174 175 173 167 160 157 159 160 162 163 160 158 156 151 148 150 149 142 142 142 146 143 139 135 121 133 150 162 166 160 156 155 156 146 132 117 96 75 71 75 77 62 4 314 308 308 303 303
21 84 14 45 101 131 110 235 204 220 227 185 219 264 257 230 208 204 232 278 272 249 195 160 176 170 274 245 173 197 197 140 169 190 198 186 175 169 174 179 181 182 181 182 181 182 180 176 173 173 173 167 160 157 158 159 158 157 159 158 157 155 150 148 148 144 141 139 139 141 136 133 132 131 150 164 167 164 161 161 156 157 154 146 125 98 83 79 75 43 322 321 318 314 310 305 303
31 65 10 54 48 46 113 213 215 239 239 188 198 253 256 227 198 182 188 231 291 312 226 202 156 116 231 258 161 206 187 173 157 202 203 176 169 170 177 181 182 181 181 182 183 184 180 177 172 171 169 162 160 159 159 158 158 156 156 156 155 154 151 149 148 146 146 144 142 142 142 144 150 160 173 174 170 167 164 161 160 157 156 156 147 130 111 101 82 25 324 324 322 322 323 321 320
41 64 24 89 44 10 112 244 238 214 244 219 212 245 245 208 178 169 184 196 204 254 226 251 173 118 255 238 188 228 178 190 194 213 186 170 169 171 179 182 182 181 181 183 185 187 184 179 173 170 166 162 163 161 159 159 159 158 158 158 158 158 158 157 157 157 158 158 159 162 166 171 177 184 185 183 182 178 171 163 158 151 147 150 151 148 133 114 83 50 21 7 353 354 354 352 352
38 53 46 92 133 339 4 283 268 228 246 253 251 250 234 185 175 171 180 230 258 206 220 228 178 164 253 221 231 259 209 205 207 184 175 171 172 174 181 185 187 183 181 184 187 188 185 182 176 172 169 164 165 163 162 163 164 166 166 168 168 169 171 172 173 174 176 177 179 180 183 185 187 187 186 184 181 178 171 165 153 143 137 135 136 134 123 106 81 66 56 48 43 38 32 27 22
28 33 94 87 109 317 310 276 256 257 245 249 261 246 208 168 182 195 179 224 222 173 237 221 174 216 199 208 242 275 216 202 178 169 174 174 173 177 184 189 192 188 184 186 191 190 187 186 180 178 175 170 171 170 171 174 176 177 178 179 180 182 183 185 185 186 186 186 185 184 185 184 185 183 181 177 170 166 159 153 144 135 127 124 122 119 113 102 88 78 67 59 54 50 48 43 38
29 353 91 88 77 228 263 258 257 264 268 291 285 244 197 166 170 223 197 228 206 159 218 145 227 221 161 254 253 277 182 180 175 171 173 174 176 181 186 190 195 194 191 189 192 193 189 188 185 185 183 180 181 180 181 182 182 181 182 182 184 186 186 188 188 189 187 185 182 180 179 176 176 173 169 165 158 151 145 140 134 128 123 119 115 113 109 103 96 87 76 67 59 55 52 48 45
81 330 63 103 165 206 219 240 267 275 296 308 277 242 175 158 154 224 213 224 199 176 218 182 194 168 141 276 264 312 174 178 180 174 173 175 178 182 188 191 193 197 196 193 193 192 192 191 189 189 187 186 185 185 185 183 183 183 183 184 185 185 185 186 186 186 184 181 177 173 171 168 166 163 158 154 148 143 138 132 127 123 119 115 112 110 107 102 96 90 85 76 68 61 55 49 41
121 155 84 139 194 184 218 235 272 298 310 271 238 239 144 154 201 217 195 214 181 170 237 207 162 133 185 261 270 301 191 186 180 173 173 174 178 183 189 191 192 196 197 197 195 193 194 194 193 192 190 189 188 189 188 184 185 186 186 188 187 187 186 185 184 182 181 177 174 170 166 163 161 158 153 150 146 143 138 133 129 126 123 120 117 113 109 105 99 95 91 84 76 69 63 55 43
151 156 114 210 249 172 222 252 280 295 287 258 247 244 149 176 220 195 154 204 216 186 233 199 144 117 224 265 286 275 205 189 177 173 173 173 180 185 190 192 193 195 198 201 200 198 197 197 197 194 193 192 192 192 189 187 188 189 191 192 190 188 186 184 183 181 179 176 173 169 166 162 159 156 152 150 148 146 143 141 138 134 131 127 124 119 116 112 105 102 98 91 84 78 75 68 60
177 127 100 132 310 312 222 228 244 196 257 255 250 204 189 254 195 162 177 203 241 212 172 178 156 174 206 184 233 257 199 184 174 172 173 175 182 186 191 192 194 196 199 202 203 204 202 200 199 197 196 195 196 195 192 190 190 193 194 194 193 190 187 185 183 181 179 177 174 171 167 163 159 156 154 152 151 151 150 147 144 142 141 138 136 131 127 121 116 112 106 101 92 85 80 73 68
141 102 77 11 258 285 230 216 213 184 256 243 264 42 189 274 214 178 217 180 258 250 140 193 191 196 179 179 231 256 184 175 171 172 173 176 181 185 189 191 195 197 200 203 205 207 205 202 200 199 199 198 200 197 194 192 192 197 196 196 196 193 190 187 185 183 181 179 177 172 168 165 162 160 158 158 157 157 156 153 151 150 149 145 140 133 129 123 116 109 103 99 90 84 75 70 66
65 87 88 288 218 221 214 209 208 210 264 265 293 294 188 277 286 204 250 145 216 252 224 222 222 189 176 212 260 179 164 167 168 170 171 174 176 177 184 189 193 196 200 204 206 207 206 204 202 201 200 201 202 200 198 196 195 197 198 198 197 196 192 188 187 184 183 180 179 175 171 168 165 165 164 165 165 166 165 162 157 152 147 140 132 125 117 109 102 94 88 83 76 73 66 60 57
68 102 154 231 202 212 195 198 207 174 267 265 263 223 191 249 274 247 330 272 245 251 260 260 267 274 93 228 154 149 158 163 167 169 170 173 175 176 182 188 192 196 199 202 206 207 207 206 204 203 202 202 203 202 201 200 198 197 199 200 198 198 193 189 187 184 184 183 182 178 173 171 169 168 168 169 171 171 169 164 156 147 138 128 121 114 107 99 93 85 77 70 63 59 53 48 44
139 134 177 228 205 218 203 201 215 186 259 259 258 240 194 224 237 97 264 264 275 257 261 270 264 269 338 102 139 151 158 163 169 172 175 178 181 184 187 191 194 198 200 202 206 207 208 207 205 205 204 204 204 204 203 202 200 198 200 202 200 198 195 191 188 187 188 187 184 179 176 174 171 170 170 171 172 170 165 158 148 138 130 121 114 108 101 95 86 78 69 60 54 49 43 40 36
182 145 208 242 217 236 247 228 238 239 244 250 265 248 194 234 230 130 234 269 274 241 238 224 239 249 231 154 148 157 161 167 175 178 182 187 190 191 192 193 197 201 203 206 206 206 207 207 206 206 206 205 205 204 203 202 200 200 200 202 201 198 196 193 191 191 192 191 185 180 179 175 172 171 170 170 169 166 159 150 140 132 127 118 109 102 93 85 76 66 59 50 43 39 34 33 33
184 165 209 239 203 235 255 240 243 244 224 214 230 233 249 252 205 180 203 287 275 242 222 214 222 238 216 172 173 170 169 176 182 187 191 194 197 199 200 200 202 205 206 207 207 206 207 207 207 206 207 207 206 205 203 201 200 200 200 200 200 199 197 195 194 195 195 192 185 183 180 174 172 170 169 169 166 162 154 146 141 134 127 114 103 94 82 74 64 55 47 40 34 30 26 25 25
169 215 223 238 189 230 256 238 240 231 209 231 225 252 257 241 181 203 186 233 264 248 204 213 221 233 208 176 183 179 179 186 189 196 199 199 202 204 207 207 207 207 206 207 208 208 208 208 208 207 207 207 207 206 203 202 200 200 200 199 199 198 197 196 196 197 195 191 186 184 179 175 173 170 169 168 163 160 154 151 146 135 124 110 97 84 72 63 53 46 40 35 32 28 25 22 20
225 253 237 242 219 237 260 249 248 220 218 252 237 246 245 288 272 223 194 229 254 250 180 200 222 231 206 171 173 181 191 195 196 201 202 203 205 207 208 208 208 207 207 210 210 209 209 208 208 208 207 206 207 206 204 203 202 202 201 199 199 198 197 196 196 197 194 190 188 185 181 178 176 171 170 169 166 163 161 158 151 137 125 111 94 77 64 56 45 41 36 35 35 32 30 26 23
218 255 249 245 228 233 254 261 277 266 242 248 263 306 252 247 268 234 223 243 253 253 196 202 226 229 193 163 177 190 197 199 205 207 206 207 208 210 210 209 209 208 208 211 210 209 209 209 208 208 208 207 206 205 204 204 203 202 201 200 201 200 198 196 196 195 192 189 191 191 187 184 180 175 173 173 170 167 167 163 153 144 133 118 98 81 62 52 44 38 35 34 34 32 32 30 25
213 239 250 252 238 240 256 264 269 263 252 249 291 284 245 226 259 302 257 260 264 250 218 229 227 218 181 180 195 196 202 207 212 213 212 214 215 215 215 213 211 209 211 212 210 209 210 209 207 208 209 208 206 204 204 204 203 202 201 201 201 200 199 197 196 195 192 190 192 194 191 188 185 179 177 176 173 171 170 164 156 151 143 129 113 93 69 54 43 35 33 31 31 31 32 32 30
216 225 253 268 273 275 277 272 260 255 249 196 232 268 256 222 260 285 257 260 272 239 214 234 217 218 211 202 204 199 207 211 216 217 217 220 220 220 220 216 213 213 215 214 211 211 210 208 207 208 209 208 207 205 205 205 204 203 202 203 202 201 200 198 196 195 194 193 193 193 194 192 189 183 181 179 177 176 172 166 160 156 150 140 128 108 83 57 40 33 28 28 30 29 27 29 32
210 222 270 263 270 282 265 255 261 267 247 190 207 262 267 225 187 266 262 259 266 226 231 237 217 229 228 219 217 207 211 215 217 218 219 222 220 223 222 216 216 217 216 214 214 212 209 208 208 209 208 208 207 206 207 206 205 205 203 203 203 202 201 198 197 196 196 195 194 194 195 194 191 187 184 182 180 179 174 169 164 160 157 148 139 124 95 57 39 31 24 27 28 27 26 25 25
261 291 311 286 287 293 265 251 255 263 256 204 192 257 277 215 189 242 259 262 146 231 253 248 227 239 235 228 227 214 218 223 221 216 216 219 219 221 220 217 218 217 215 216 216 213 209 209 209 208 207 207 207 207 207 207 207 206 204 203 203 203 202 199 198 198 198 196 196 197 197 195 193 190 187 185 182 181 178 171 167 164 162 155 148 133 104 66 43 30 26 28 27 31 28 21 17
308 34 335 294 323 311 276 267 230 187 229 192 153 267 281 215 223 239 251 258 292 277 274 264 241 242 244 236 231 222 227 228 221 218 221 221 222 221 221 222 218 215 217 219 216 213 212 210 208 207 206 206 207 208 208 208 208 206 205 205 204 204 202 201 200 199 199 198 198 199 200 196 194 192 189 187 185 183 180 175 171 169 166 162 156 143 115 85 54 39 37 31 31 34 19 14 10
289 35 24 288 337 304 275 280 147 187 206 170 136 267 271 240 236 241 253 258 269 277 270 267 259 248 248 243 237 233 231 227 219 222 224 225 226 224 225 226 220 217 218 216 215 215 213 210 207 206 205 206 207 208 208 209 209 206 206 206 205 205 204 204 203 201 200 199 199 200 200 198 195 194 191 188 186 186 182 177 175 173 171 167 161 153 136 111 66 46 31 23 18 13 4 358 354
288 320 209 279 314 272 276 60 117 220 221 165 147 230 262 266 255 241 252 248 220 251 260 263 264 260 254 246 242 242 236 226 226 228 227 228 229 227 227 228 222 219 216 214 217 216 213 209 207 205 204 206 206 206 208 209 209 207 206 206 205 205 205 206 206 203 201 201 201 201 201 199 196 195 194 191 189 188 185 180 178 177 174 170 166 161 154 148 100 356 357 4 359 356 357 349 345
349 234 263 264 198 259 291 307 172 216 252 156 155 222 254 268 267 248 238 213 187 231 254 258 263 264 259 254 246 247 247 236 234 234 232 232 231 228 228 228 223 218 215 216 217 213 210 208 206 205 204 205 205 206 207 208 208 207 206 207 206 206 206 207 207 206 204 202 202 202 201 200 197 197 195 194 193 191 188 184 180 179 176 173 172 169 171 189 237 328 340 350 346 344 342 341 339
297 207 240 250 219 252 306 301 232 203 216 176 201 229 249 262 269 265 229 201 195 221 251 257 260 263 260 259 253 249 255 251 244 237 234 233 230 228 227 227 225 221 218 217 214 210 208 206 205 205 204 204 204 204 205 206 207 206 206 206 206 206 206 207 207 208 206 204 203 204 203 201 199 199 197 196 195 192 189 185 182 180 178 178 178 179 184 191 248 331 346 341 337 340 338 337 335
266 202 227 251 236 221 273 296 292 186 178 216 226 231 240 251 263 272 246 193 195 218 246 255 257 263 263 263 260 255 253 254 251 240 236 232 228 228 227 226 225 222 219 216 214 212 208 205 204 204 204 203 202 201 202 203 204 205 205 205 206 206 207 208 209 209 208 205 205 205 204 202 200 199 198 196 195 194 190 186 185 182 182 183 183 184 185 185 202 336 341 333 332 341 340 339 335
241 215 221 255 242 230 243 268 285 192 226 227 230 238 243 253 264 271 265 222 214 236 245 255 259 263 264 263 262 258 253 253 251 247 243 236 228 227 225 225 224 221 217 215 213 211 207 204 202 201 200 199 198 198 199 200 200 201 201 202 205 205 207 209 210 211 210 207 206 206 206 203 200 199 199 197 195 194 190 187 187 186 185 186 185 185 182 182 182 178 245 307 318 338 344 340 336
242 233 217 228 243 242 238 252 251 236 262 242 231 246 246 250 256 261 267 257 248 254 253 258 260 261 260 259 261 261 258 256 253 252 250 241 230 226 223 221 221 219 216 212 210 207 204 201 198 197 197 195 193 194 194 194 194 195 196 198 201 205 206 208 210 212 211 209 208 207 208 205 200 200 199 198 196 194 192 189 189 188 188 188 188 185 178 177 178 183 200 213 273 328 344 336 337
267 262 248 243 252 262 252 260 264 215 244 247 229 247 251 246 249 251 261 268 264 262 259 255 253 254 256 255 257 258 257 259 260 259 253 241 231 224 220 217 214 214 212 209 206 204 203 199 195 194 193 192 190 190 191 191 190 190 192 196 200 203 204 206 209 211 211 212 211 210 210 207 202 201 199 198 197 195 194 191 191 190 190 189 187 183 177 177 179 187 196 205 245 294 338 339 343
257 252 263 264 254 265 260 261 272 228 215 257 240 254 259 249 250 249 254 264 264 261 259 256 251 248 251 254 256 256 257 264 269 267 251 233 227 219 214 210 205 205 206 206 205 203 201 197 195 193 190 190 191 191 191 192 194 194 194 197 200 201 203 205 207 209 211 212 212 211 211 208 204 203 201 199 198 197 195 194 194 194 192 189 185 182 180 181 183 188 196 208 231 315 12 7 355
244 245 260 266 255 273 270 252 262 244 195 264 257 258 263 255 251 248 247 254 256 255 253 255 253 247 248 248 252 257 259 263 266 267 256 222 218 213 206 203 203 206 205 204 204 200 196 194 194 192 190 190 192 193 193 194 196 197 198 198 199 199 202 206 208 209 210 211 212 212 212 209 205 204 203 201 200 199 197 197 196 194 193 191 189 186 184 184 187 190 195 208 214 82 55 44 11
226 226 246 260 252 263 267 246 258 253 205 263 274 268 268 264 259 248 240 247 252 255 254 257 255 245 246 247 250 257 260 260 259 263 260 218 209 206 200 201 203 204 202 199 198 195 193 194 193 191 191 191 192 193 194 195 195 195 197 199 199 199 202 205 207 210 210 210 211 211 212 210 207 206 204 203 202 200 199 199 197 195 193 192 192 190 188 187 188 192 197 206 207 161 102 92 27
229 207 219 249 247 242 252 269 306 297 255 259 288 286 275 247 249 251 236 242 252 256 257 262 258 246 247 252 255 255 257 259 257 260 258 214 202 203 200 202 200 198 198 197 196 195 194 194 193 191 191 191 192 192 192 192 191 189 190 191 193 197 199 200 203 207 208 208 209 210 211 210 207 206 205 204 203 201 199 198 198 197 194 192 193 191 188 186 188 193 199 209 215 201 134 123 82
255 202 208 238 248 248 257 280 316 308 278 268 288 291 284 209 219 245 237 238 250 252 252 257 258 254 252 254 255 252 253 257 257 260 256 217 201 202 201 200 196 198 200 199 197 195 194 192 191 191 190 190 191 191 190 190 188 187 185 184 186 190 193 197 202 204 204 205 208 209 209 210 208 207 206 205 204 202 199 198 198 197 195 194 193 190 187 187 190 193 196 207 222 233 205 103 118
272 214 207 233 247 254 256 267 285 265 266 280 118 265 285 259 213 236 233 230 244 249 250 252 253 254 251 250 253 252 252 254 254 257 250 217 201 193 197 199 197 200 201 198 195 193 192 191 190 190 190 190 190 190 190 190 188 188 189 190 191 193 197 203 206 206 204 204 206 208 209 210 209 207 206 205 204 202 200 199 198 197 197 195 193 191 189 190 190 192 197 206 218 225 266 29 102
268 207 191 216 235 248 233 218 231 230 281 289 146 151 274 281 250 201 214 222 233 244 246 248 250 249 248 248 252 254 253 252 251 253 241 215 201 192 198 201 198 199 197 192 192 191 192 190 189 190 189 190 190 190 190 191 191 191 193 196 198 201 204 208 207 206 206 205 205 208 209 209 209 209 208 206 204 203 201 199 198 197 197 195 194 193 191 190 189 194 200 204 211 213 239 297 277
253 148 154 177 200 223 167 164 218 273 336 290 196 139 252 282 266 168 204 216 217 235 238 243 246 244 245 246 252 256 259 257 245 241 235 210 201 201 202 198 194 195 193 191 192 190 189 189 188 188 189 190 190 191 192 193 195 196 196 198 202 205 208 209 208 206 206 205 205 207 208 209 209 210 210 209 206 203 202 201 200 198 197 195 195 193 191 191 193 199 203 204 208 203 209 261 272
232 116 107 73 85 81 97 138 143 48 307 267 196 148 211 283 287 123 177 209 212 227 230 240 244 244 249 251 257 258 262 264 247 233 234 208 202 204 196 189 188 191 192 191 189 187 186 187 187 188 189 190 191 192 194 195 197 198 199 201 203 205 206 207 207 205 205 205 205 206 207 208 208 209 210 210 208 205 203 203 202 200 199 198 196 193 192 194 195 199 203 206 208 200 199 225 249
102 97 55 23 15 25 53 32 74 52 280 244 176 171 176 276 292 118 175 217 223 228 227 244 250 252 256 255 259 258 259 266 253 214 205 179 180 186 181 179 182 186 188 187 186 185 185 186 186 189 190 191 192 194 195 197 199 201 203 204 205 204 203 203 203 203 204 205 205 206 206 207 208 208 208 209 209 207 205 205 205 203 201 200 198 195 195 195 195 198 200 204 205 200 198 206 225
93 114 77 13 329 3 27 352 57 206 263 224 177 177 175 234 262 138 250 259 233 215 221 238 244 251 256 253 254 254 258 265 242 179 165 147 149 167 172 174 177 180 182 183 184 184 185 187 187 189 192 193 194 195 198 199 201 203 205 206 206 206 204 204 204 204 204 205 205 205 205 206 207 207 207 208 207 206 205 205 205 204 203 201 200 198 197 196 196 197 199 203 203 199 199 207 216
125 123 131 289 303 337 349 314 135 220 257 233 185 177 198 242 257 276 276 275 256 223 217 231 238 245 253 255 256 256 264 262 209 181 171 168 174 175 176 176 177 181 182 181 183 184 186 188 189 191 193 195 196 198 200 201 203 206 207 208 208 207 207 207 207 207 207 207 206 205 204 204 205 206 207 207 207 205 204 205 204 204 204 203 202 200 198 197 197 199 200 202 204 204 206 212 215
167 156 158 171 213 251 252 265 269 256 264 257 187 167 238 278 279 234 241 260 265 240 223 235 242 251 259 266 273 272 277 264 192 187 186 189 192 186 184 183 181 183 183 183 184 186 187 189 192 194 196 197 199 200 202 203 207 208 209 210 209 209 209 210 211 211 210 209 207 207 207 206 206 207 207 208 208 205 204 205 205 204 204 204 202 200 199 199 199 201 202 204 206 207 209 212 214
191 167 144 180 193 187 199 222 250 258 276 297 220 174 227 271 266 228 228 256 278 270 251 246 247 253 256 263 270 272 284 289 207 200 206 206 197 188 187 187 186 186 184 185 186 187 189 192 194 196 197 199 200 202 204 206 209 209 210 211 211 211 212 213 214 214 213 212 211 210 210 209 209 209 209 209 208 206 205 205 204 204 204 203 202 200 199 199 200 200 201 204 206 207 209 211 212
234 135 118 224 207 172 212 241 240 247 306 300 240 216 235 250 262 253 255 283 279 267 265 258 252 255 253 257 261 265 279 277 232 220 222 216 196 186 191 190 190 189 187 189 190 191 193 195 196 198 200 200 201 204 206 208 209 209 210 211 212 213 213 214 215 215 215 215 214 213 213 212 212 211 210 209 208 207 206 205 203 204 203 202 201 201 200 200 200 200 200 202 205 207 210 211 212
218 132 173 231 160 149 221 261 266 265 266 262 253 258 275 306 287 276 341 324 297 289 294 286 276 277 277 273 269 270 270 253 232 231 227 215 198 193 196 193 190 191 192 195 196 197 197 197 198 200 201 201 204 206 208 208 208 209 210 212 212 213 214 215 216 216 215 215 215 215 215 214 213 212 211 210 208 207 207 205 204 202 201 201 200 200 201 200 200 200 201 204 205 207 209 210 211
135 180 213 197 65 127 188 244 295 263 254 260 266 268 279 307 285 302 349 327 308 312 317 312 304 296 284 274 269 269 266 252 247 249 243 230 214 203 200 199 198 197 198 201 202 202 201 201 201 201 201 204 206 207 208 208 208 209 211 212 213 214 215 216 217 216 215 215 215 216 215 214 213 212 211 210 208 207 206 206 204 202 200 199 200 199 199 199 199 200 202 204 204 205 207 207 210
147 200 211 124 165 228 175 185 213 236 248 250 250 263 274 260 253 284 301 282 278 293 318 333 330 328 309 294 291 286 271 253 249 243 245 244 230 219 208 207 208 207 208 207 206 204 205 207 207 206 207 208 208 208 209 210 210 211 213 214 214 215 216 217 216 216 215 215 216 215 214 214 213 212 211 210 208 207 205 205 204 202 200 199 199 199 198 198 199 200 200 201 201 203 206 207 209
352 298 302 102 195 191 183 191 171 216 246 253 243 252 268 255 228 241 252 233 235 272 337 346 324 336 335 313 302 297 283 267 260 239 235 235 231 228 217 213 212 212 214 213 208 207 208 210 210 211 212 211 209 210 211 212 213 214 215 215 216 216 216 216 216 215 216 216 217 215 214 214 212 212 211 210 209 208 206 205 204 203 201 199 198 197 197 198 199 200 201 200 199 201 204 205 207
239 247 254 261 242 216 253 233 158 200 240 252 251 247 258 268 227 223 248 231 214 236 337 309 292 315 327 316 284 274 272 268 262 250 244 238 233 234 224 221 218 214 216 215 211 210 210 211 212 214 214 212 211 212 211 213 214 215 216 217 217 217 216 215 215 215 216 217 217 216 215 214 212 212 211 210 209 209 207 205 204 203 203 201 199 198 198 198 199 199 200 200 199 200 202 202 204
208 217 232 232 230 244 269 251 210 203 232 244 257 256 252 272 266 233 232 225 222 230 240 261 266 266 286 304 276 247 250 251 244 236 239 237 235 239 230 221 216 213 215 214 212 211 211 213 215 214 214 214 214 214 213 214 214 214 216 217 217 217 215 214 214 215 216 216 217 216 215 213 212 212 211 210 209 208 206 205 203 203 203 203 202 200 199 199 199 199 198 198 198 198 200 200 202
Height
817 818 817 817 816 816 818 818 833 837 839 849 845 843 831 820 821 818 818 815 814 811 808 807 805 805 807 809 810 812 814 815 817 827 829 817 816 818 818 819 820 822 823 825 827 828 829 830 831 832 833 833 834 835 836 836 837 837 838 839 839 840 840 841 841 842 842 842 842 843 843 844 844 844 844 844 844 844 844 844 844 845 845 845 845 845 845 844 844 844 843 843 843 843 843 843 843
817 818 816 817 815 817 821 822 841 848 846 851 842 838 827 818 820 816 816 814 812 809 807 808 806 806 807 807 809 812 813 814 813 815 817 815 818 818 818 818 819 821 822 823 825 827 828 829 830 830 831 832 833 834 835 835 836 837 838 838 839 840 840 841 841 841 842 842 842 843 843 844 844 844 844 844 844 844 844 844 844 844 845 845 845 845 844 844 844 843 843 843 843 843 843 843 842
817 817 816 816 816 817 823 827 842 853 853 852 839 831 825 819 817 813 813 812 809 807 808 809 807 807 809 811 810 812 814 815 814 814 816 816 815 814 816 817 818 820 821 822 824 825 826 827 828 829 830 830 831 832 833 834 835 836 837 838 839 839 840 840 841 841 841 842 842 842 843 843 844 844 844 843 843 843 843 844 844 844 845 845 845 844 844 843 843 843 843 843 843 843 843 842 842
817 816 816 816 819 821 828 835 843 851 853 853 841 825 821 817 812 813 812 810 810 809 808 808 808 807 809 813 810 811 812 812 811 811 813 812 810 811 813 816 817 819 820 821 823 824 825 826 827 828 829 829 830 831 832 833 834 835 836 837 838 839 839 840 840 840 841 841 842 842 843 843 843 843 843 843 843 843 843 843 844 844 844 844 844 844 843 843 843 842 842 842 843 843 842 842 842
817 816 816 815 822 826 831 841 846 850 846 844 837 821 817 814 812 814 812 810 810 809 808 807 808 807 807 809 809 809 809 809 808 807 808 807 808 811 813 814 816 817 819 820 822 823 824 825 826 826 827 828 829 830 831 832 833 834 835 836 837 838 838 839 840 840 840 840 841 842 842 842 842 842 842 842 842 842 842 842 843 843 843 843 843 843 843 842 842 842 842 842 842 842 842 842 842
816 816 816 815 821 824 834 844 847 848 836 833 831 819 814 812 814 814 812 811 809 808 807 806 807 807 808 807 806 806 806 806 805 805 805 805 808 811 812 813 815 816 818 820 821 822 823 824 824 825 826 827 828 829 831 832 833 834 834 835 836 837 837 838 838 839 839 839 840 840 841 841 841 840 840 841 841 841 841 842 842 842 842 842 842 842 842 842 841 841 841 841 842 842 842 842 842
816 817 818 820 824 826 840 846 844 844 831 826 826 816 812 811 815 814 813 812 809 808 806 806 805 806 809 806 806 805 804 804 803 803 803 804 808 810 811 812 814 816 818 819 820 822 822 823 824 825 825 827 828 829 830 831 832 833 833 834 835 835 836 836 837 837 837 838 838 838 839 839 839 839 839 840 840 840 840 841 841 841 841 841 841 841 841 841 841 841 841 841 841 841 841 841 841
816 819 822 825 832 835 843 844 841 842 829 822 820 813 809 809 813 813 812 812 810 808 806 805 804 807 807 805 806 804 803 803 802 802 803 804 807 809 810 811 813 815 817 818 820 821 822 823 823 824 825 826 827 828 829 830 830 831 832 833 833 834 834 835 835 835 836 836 836 837 837 837 837 838 838 839 839 840 840 840 840 840 840 840 840 841 841 841 841 841 841 841 841 841 841 841 840
816 819 824 828 837 841 844 843 839 835 826 820 816 810 808 809 812 811 811 811 809 808 807 805 804 807 807 805 805 803 802 801 801 802 803 804 806 808 809 810 811 813 815 817 819 820 821 822 823 823 824 825 826 827 827 828 829 830 831 831 832 832 833 833 833 834 834 835 835 835 836 836 836 837 838 838 839 839 839 839 839 839 839 839 840 840 840 840 841 841 841 841 841 840 840 840 839
818 821 826 833 840 844 844 842 837 829 821 817 813 807 806 808 811 811 810 809 807 806 806 805 805 806 807 805 803 801 801 800 801 801 802 804 805 807 808 809 810 811 814 816 818 819 820 821 822 823 823 824 825 826 826 827 828 829 830 830 831 831 832 832 833 833 834 834 834 835 835 835 836 836 837 837 838 839 839 839 839 839 839 839 839 839 839 840 840 840 840 840 840 840 839 839 839
823 824 826 836 843 845 843 838 833 825 819 816 811 805 804 807 809 810 809 808 806 806 805 806 806 805 806 805 801 800 799 799 799 799 801 803 805 806 807 809 810 811 813 814 816 818 819 820 821 822 822 823 824 825 826 827 827 828 829 830 831 831 832 832 832 833 833 834 834 834 834 835 835 836 837 837 838 838 838 839 839 839 838 838 839 839 839 839 839 839 840 839 839 839 839 839 838
827 829 829 839 844 842 840 838 831 825 820 816 808 801 803 807 809 807 806 806 805 806 804 804 802 800 806 804 800 800 799 799 799 799 801 803 804 806 807 808 809 811 812 813 815 816 818 819 820 821 822 823 824 825 825 826 827 828 828 829 830 830 831 832 832 833 833 833 833 834 834 834 835 835 836 837 837 838 838 838 838 838 838 838 838 838 839 839 839 839 839 839 839 839 838 838 838
826 831 832 839 843 840 839 837 830 827 821 812 805 800 802 805 806 802 802 804 804 806 802 799 797 797 803 802 799 800 799 798 799 800 801 803 805 805 807 808 809 811 812 813 813 814 816 817 818 820 821 822 823 824 824 825 826 826 827 828 829 829 830 831 831 832 832 833 833 833 834 834 834 835 835 836 837 837 838 838 838 838 838 838 838 839 839 839 839 839 839 839 839 839 838 838 838
824 828 832 838 842 838 836 832 826 828 820 807 804 801 801 802 800 799 800 803 803 802 797 794 796 798 801 800 799 797 795 796 798 801 802 804 805 806 807 808 809 810 811 812 812 813 814 815 816 818 819 820 821 822 823 823 824 825 826 826 827 828 829 829 830 831 831 831 832 832 832 833 834 834 835 835 836 837 837 838 838 838 838 838 839 839 839 839 839 839 839 839 839 838 838 838 838
822 826 830 837 841 837 833 830 823 827 819 805 803 800 801 799 797 799 799 800 799 795 794 794 795 798 799 797 795 790 789 794 797 800 802 804 805 806 807 808 809 810 811 811 812 812 813 814 815 816 817 817 819 819 821 821 822 823 824 825 826 826 827 828 829 829 830 830 831 831 832 832 833 833 834 835 835 836 837 837 837 838 838 838 838 838 839 838 838 838 838 838 838 838 838 837 837
821 824 832 837 839 838 833 828 824 825 815 804 804 802 802 798 796 798 795 795 796 793 794 794 793 793 793 792 790 786 786 792 796 800 802 804 805 806 807 808 809 809 810 810 811 811 812 813 813 814 815 816 817 818 819 819 820 821 822 823 824 825 825 826 827 828 828 829 830 830 831 831 832 832 833 834 834 835 836 836 837 837 837 837 838 838 838 838 838 838 838 838 838 837 837 837 836
820 824 835 838 839 838 829 823 821 818 810 804 803 802 803 800 796 795 793 794 794 794 793 792 790 788 789 789 787 786 787 792 796 799 801 803 804 806 807 807 807 807 808 808 809 810 810 811 811 812 813 814 815 816 817 818 819 820 821 821 822 823 824 825 825 827 827 828 829 829 829 830 830 831 832 833 833 834 835 835 836 836 836 837 837 837 837 837 837 837 837 837 836 836 836 836 835
822 830 837 836 837 831 820 815 812 810 807 803 801 801 803 800 796 794 794 794 793 794 793 790 788 787 789 788 787 787 788 792 794 797 799 801 802 803 804 804 804 804 804 805 806 807 808 808 809 810 811 812 813 814 815 816 817 818 819 820 820 821 822 823 824 825 826 827 827 828 828 829 829 830 831 832 832 833 834 835 835 835 836 836 836 836 836 836 836 836 836 835 835 835 835 834 834
823 832 836 832 828 819 810 808 805 806 805 801 800 800 802 799 796 795 795 794 794 794 792 791 790 787 788 789 789 789 789 791 792 794 795 797 797 797 799 800 800 800 801 801 802 803 804 805 806 807 808 810 811 812 813 815 816 816 817 818 819 820 821 822 823 824 825 825 826 826 827 827 828 829 829 830 831 832 833 834 834 834 835 835 835 835 835 835 835 835 834 834 834 834 833 833 833
822 828 834 825 816 812 808 806 803 802 802 801 800 800 802 798 795 796 795 794 793 792 789 789 790 786 785 789 790 790 790 791 791 792 793 793 792 793 793 794 795 795 795 796 797 799 801 802 803 805 806 808 809 810 812 812 814 815 815 816 817 818 819 820 821 822 823 824 825 825 826 826 827 827 828 829 830 831 832 833 833 834 834 834 834 834 834 834 834 834 833 833 833 833 832 832 832
821 823 824 816 813 813 804 801 801 800 800 800 799 801 801 796 795 795 794 796 790 784 783 783 784 780 781 788 790 789 790 790 791 791 790 790 790 790 789 788 788 789 791 794 795 796 797 799 800 802 804 805 806 807 809 810 812 813 813 814 816 817 818 819 820 821 822 823 823 824 824 825 825 826 827 828 829 830 831 831 832 833 833 833 834 834 834 834 833 833 833 832 832 832 831 831 831
819 817 814 810 812 811 800 798 800 799 800 800 800 801 797 794 795 793 794 796 782 772 777 777 776 775 777 783 786 788 789 788 788 788 787 787 786 786 786 786 787 789 790 791 790 792 794 796 798 800 801 802 804 805 807 809 809 811 811 812 814 815 816 817 819 820 821 822 822 823 823 823 823 824 825 826 827 828 829 830 831 832 833 833 833 833 833 833 833 833 832 832 831 831 831 831 830
817 813 809 808 810 808 799 797 798 798 800 800 799 797 794 794 793 791 791 787 771 764 771 773 772 771 772 777 782 785 785 785 783 782 781 781 781 781 781 782 783 784 785 785 786 788 790 793 795 797 798 800 802 804 805 806 808 809 810 811 812 813 814 815 817 818 819 820 820 821 821 821 821 822 823 824 826 827 828 829 830 831 831 832 832 832 832 832 832 832 832 832 831 831 831 831 830
816 813 807 805 806 804 799 798 798 799 799 798 798 796 795 795 792 791 787 775 764 764 769 769 769 769 771 774 777 778 778 779 777 775 775 774 774 773 775 777 778 780 781 781 783 785 787 788 792 794 795 797 799 801 803 804 806 807 808 809 810 811 813 813 814 816 817 818 819 819 820 820 820 821 822 823 824 825 826 827 828 829 830 831 831 831 832 832 832 831 832 831 831 831 831 831 830
814 811 806 804 803 800 797 798 798 798 797 797 798 795 793 792 792 790 781 767 760 764 768 767 768 769 770 771 772 774 774 774 772 771 772 770 770 772 774 775 777 779 777 778 780 781 782 785 788 790 792 794 796 799 800 802 804 805 806 807 808 810 811 812 813 814 816 817 818 818 819 819 819 820 820 821 823 823 825 826 827 828 828 829 830 830 831 831 831 831 831 831 831 831 831 830 830
808 806 804 803 801 798 796 797 795 796 796 796 797 793 789 790 792 786 772 761 758 762 765 764 767 768 767 768 768 769 769 769 769 768 768 768 771 772 771 773 775 773 772 774 776 777 779 782 784 785 788 790 793 796 797 799 801 802 803 804 806 807 809 810 812 813 814 815 816 817 818 818 818 819 819 820 821 822 823 824 825 827 827 828 829 829 830 830 830 830 830 830 830 830 830 830 830
805 805 804 802 802 798 795 794 791 794 794 793 795 791 785 789 794 783 762 756 759 761 762 762 765 765 764 765 764 765 765 763 762 763 766 768 770 767 766 769 769 767 770 772 772 773 776 778 779 781 784 787 790 792 794 796 798 799 801 803 804 805 807 809 810 811 812 814 814 815 816 817 818 817 818 818 819 821 821 823 824 825 826 827 828 828 828 829 828 829 829 829 829 829 829 829 829
804 805 803 799 800 799 791 791 791 793 792 788 791 789 785 791 793 778 757 754 760 760 760 761 763 761 760 761 760 762 761 758 758 762 763 762 761 759 760 761 761 763 766 766 767 771 773 774 776 779 781 784 786 788 791 793 795 797 799 801 802 803 805 807 808 809 810 812 813 814 814 815 816 816 816 817 818 819 820 821 823 824 825 826 826 827 827 827 827 827 827 828 828 828 828 828 828
804 805 808 800 800 799 784 784 789 790 789 784 789 792 787 788 782 765 756 755 760 762 760 759 760 758 757 757 758 759 756 754 758 758 755 752 751 752 753 752 755 759 760 761 766 768 769 771 773 776 779 781 783 785 787 790 792 794 797 798 800 802 804 805 806 807 808 810 811 812 813 813 814 814 815 816 817 818 819 820 821 822 824 824 825 826 826 826 827 827 827 827 827 827 827 827 827
804 806 810 805 809 802 777 778 787 786 788 782 788 797 785 775 768 758 756 758 761 764 760 756 755 755 754 754 755 754 752 752 752 749 746 746 746 747 747 748 751 754 755 760 763 763 764 767 770 773 775 777 779 782 785 787 789 791 794 796 798 799 801 803 804 806 807 808 809 810 811 811 812 813 813 814 815 816 817 818 820 821 822 823 824 824 825 825 826 826 826 826 826 826 826 826 826
807 810 812 812 819 802 774 780 788 784 786 780 786 799 784 765 759 756 755 757 762 762 757 755 752 751 751 750 751 749 747 746 743 740 741 741 741 743 743 745 748 749 752 755 755 757 760 763 766 769 771 773 776 778 781 783 785 788 791 793 795 797 798 800 802 803 805 806 807 808 809 810 810 811 812 812 813 814 816 817 818 819 820 821 822 823 824 824 825 825 825 825 825 825 825 824 824
809 815 814 815 818 804 781 780 784 782 784 783 786 794 785 765 753 752 754 756 760 759 754 752 750 749 748 747 747 745 741 739 737 737 738 736 737 739 739 740 743 744 746 748 749 753 757 759 762 764 767 770 772 775 777 780 783 785 788 790 792 794 796 797 799 801 803 804 805 806 807 808 808 809 810 811 812 813 814 815 816 818 819 820 821 821 822 823 823 824 824 824 824 824 824 824 823
812 815 814 812 814 812 798 781 778 779 781 785 785 783 778 764 750 749 754 754 755 756 753 750 749 746 745 744 742 740 737 735 734 733 731 730 731 732 733 735 736 738 739 742 745 749 751 754 757 760 762 765 768 771 774 777 780 782 785 788 790 792 793 795 797 799 800 801 802 803 804 805 806 807 808 809 810 811 813 814 815 816 817 818 819 820 821 822 822 823 823 823 823 823 823 823 823
812 814 815 812 810 813 805 785 776 779 781 782 781 780 772 757 748 748 752 753 754 754 751 748 747 745 743 742 739 736 735 731 728 725 723 723 725 726 727 729 730 732 735 738 741 743 746 749 752 755 758 761 765 768 772 775 778 781 783 786 788 790 791 793 795 796 797 799 800 801 802 803 804 805 806 807 809 810 811 812 813 814 816 817 818 818 819 820 821 822 822 822 822 822 822 822 821
804 808 811 812 809 808 806 792 780 779 781 781 782 782 773 761 754 750 749 751 752 750 748 746 745 743 742 740 736 732 731 727 720 716 716 718 720 721 723 725 727 729 732 734 737 740 743 746 748 752 756 759 764 767 771 774 777 780 782 785 787 788 790 791 792 793 794 796 797 799 800 801 802 803 804 806 807 808 809 811 812 813 814 815 816 817 818 819 820 821 821 821 821 821 821 821 820
799 802 806 808 805 801 799 790 779 778 782 781 782 777 770 766 760 752 747 747 749 747 746 746 743 741 738 736 732 728 726 719 712 709 711 714 715 716 719 721 724 726 728 731 734 737 739 742 746 749 753 757 762 766 769 772 775 778 781 783 784 785 786 788 789 790 791 793 795 797 798 799 800 801 803 804 805 807 808 809 810 811 812 813 814 815 816 818 819 820 820 821 821 821 821 820 819
801 803 805 804 804 799 790 784 777 778 782 776 774 770 763 761 757 751 747 744 745 744 743 742 740 737 734 731 727 723 720 711 704 706 707 709 710 712 715 717 721 723 726 728 730 732 734 737 740 744 748 753 756 760 764 767 770 773 776 778 778 780 782 784 785 787 788 790 792 794 795 797 798 799 800 802 803 804 806 807 808 809 810 811 812 814 815 816 817 818 819 820 819 820 820 819 819
801 804 805 804 805 796 784 782 777 777 783 774 768 768 760 756 753 748 747 745 741 738 738 735 732 733 730 727 723 717 714 707 702 702 702 705 706 708 711 713 716 718 720 722 723 725 729 732 735 739 743 747 750 754 757 761 763 765 768 770 773 776 778 780 781 783 785 787 790 791 792 794 796 797 798 799 801 802 803 804 805 806 808 809 811 812 813 814 816 817 817 818 818 818 819 819 819
803 806 808 806 803 793 782 780 775 777 782 773 767 766 755 750 748 745 745 741 734 731 730 727 725 728 726 722 719 713 710 706 701 697 697 702 703 705 707 709 710 711 713 716 718 722 726 729 732 735 739 742 745 749 752 755 759 762 765 767 770 773 776 778 780 781 783 785 787 789 790 792 793 794 796 797 798 799 800 801 803 804 806 807 808 810 811 813 814 815 816 817 817 817 818 818 819
804 805 809 805 799 795 785 776 772 775 779 772 769 765 752 747 745 742 741 734 727 727 725 723 722 723 720 715 712 710 706 702 698 694 694 699 701 702 704 704 705 708 710 713 716 719 722 724 727 731 734 738 742 745 749 753 758 762 765 768 771 773 775 777 780 781 782 783 784 786 787 789 791 792 793 794 795 796 798 799 801 802 803 805 807 808 809 811 812 814 815 816 816 816 816 818 818
796 800 805 797 790 791 785 778 774 775 775 771 772 764 744 740 742 736 734 730 726 726 725 722 720 717 714 711 708 705 700 695 693 690 691 696 699 699 700 701 703 706 707 708 710 713 716 719 724 728 732 735 739 743 748 752 756 760 764 768 772 773 775 777 777 777 777 779 780 781 783 785 788 789 791 792 793 794 795 797 799 800 801 803 805 806 807 809 811 812 814 814 814 814 815 816 818
787 791 793 783 780 784 783 783 784 784 780 773 776 770 738 723 733 732 728 730 727 725 725 720 715 711 710 708 703 699 695 691 689 687 688 692 695 697 698 700 701 702 702 703 706 710 713 718 722 727 731 734 738 742 746 749 752 756 759 763 766 768 770 769 767 767 769 772 774 777 780 783 785 787 788 789 790 792 793 795 796 798 799 801 803 804 805 807 808 810 812 813 813 812 813 814 816
784 781 778 775 779 784 784 787 790 789 784 776 778 779 752 723 726 731 727 728 726 723 723 717 710 707 705 703 696 692 691 687 686 685 686 689 691 694 696 696 697 697 699 703 707 710 713 717 721 725 729 732 737 740 744 747 749 753 755 757 759 761 762 761 761 764 767 770 773 776 779 781 783 785 786 787 788 790 791 793 794 796 797 799 801 802 803 804 806 808 810 811 811 811 811 812 814
782 773 771 771 775 780 784 788 791 788 783 780 776 780 774 739 719 723 721 723 724 720 716 710 704 703 701 697 691 687 685 682 682 683 683 686 688 689 690 691 693 695 699 703 706 709 711 715 719 723 727 730 734 738 741 744 746 749 752 754 756 757 758 759 763 766 768 770 773 775 777 778 780 782 784 785 787 788 790 791 792 794 795 797 799 800 801 803 805 806 808 809 809 809 809 810 812
774 772 775 775 776 779 782 784 788 792 788 783 776 779 783 746 709 713 719 721 725 717 709 703 698 697 694 690 686 682 680 677 678 679 679 683 685 686 687 689 692 695 697 700 702 706 710 714 718 721 725 728 731 735 738 741 743 745 748 751 753 755 757 761 763 766 768 770 771 773 774 776 778 780 782 784 785 787 788 789 790 791 793 794 796 798 799 801 802 804 805 807 807 807 807 808 809
772 776 777 778 780 779 783 782 783 791 786 779 776 777 780 746 707 715 724 722 721 711 703 699 693 691 688 686 683 680 677 673 674 677 679 682 684 685 687 689 692 694 696 699 702 706 710 713 717 720 723 726 729 732 735 738 741 743 745 747 749 752 756 760 762 765 767 768 769 770 772 773 775 777 780 782 784 786 787 788 789 790 791 792 793 794 796 798 800 802 803 805 805 804 804 805 807
776 778 775 777 782 781 786 785 783 790 781 771 769 766 774 753 716 717 722 715 713 707 702 698 692 690 686 684 682 678 675 671 673 678 680 683 685 686 688 689 692 694 697 700 702 706 708 711 715 718 721 724 726 730 732 735 738 740 741 743 746 750 753 756 759 761 763 765 766 767 769 771 773 774 776 779 781 784 786 787 788 790 790 791 791 792 793 795 797 799 801 803 803 803 802 803 804
776 778 776 779 784 784 790 791 791 794 778 762 757 757 768 752 717 713 712 703 706 705 701 696 690 689 685 680 678 674 673 671 673 677 680 683 685 686 689 690 692 694 696 699 701 704 708 710 713 716 720 722 724 727 729 731 734 735 737 740 743 746 749 751 753 756 758 760 763 765 767 769 771 772 774 775 777 780 783 785 787 788 789 789 790 791 792 794 795 797 799 801 801 801 800 801 802
778 780 781 787 793 793 794 794 794 792 773 757 757 761 760 734 707 707 703 694 695 695 695 693 688 685 681 677 675 671 671 671 673 677 679 682 683 684 687 688 690 692 693 696 699 702 705 708 711 713 716 719 722 724 726 728 730 731 733 736 739 742 745 747 749 751 753 756 759 761 763 764 766 768 769 770 771 774 778 780 783 785 786 788 789 790 791 792 794 795 797 799 799 799 799 799 800
778 777 778 788 795 798 799 795 792 784 765 756 763 765 752 724 702 698 691 686 687 687 690 690 687 685 681 678 677 673 670 671 674 676 678 679 680 681 684 685 687 689 691 694 696 699 702 705 708 710 713 716 718 720 723 725 726 728 731 734 737 740 741 743 745 747 749 751 754 755 756 758 759 761 762 764 767 770 773 776 779 782 784 786 787 788 790 791 792 794 795 797 798 798 797 798 799
772 767 768 776 778 782 786 781 775 766 755 759 770 761 739 719 702 691 686 685 685 685 685 686 685 684 680 678 676 673 671 672 675 676 676 676 677 679 682 683 685 686 689 691 693 696 698 700 703 705 708 711 714 717 719 720 722 725 729 731 734 736 738 740 741 743 745 747 749 751 752 753 754 756 758 761 765 767 770 772 775 778 781 783 785 786 787 789 790 792 793 795 796 797 796 796 797
768 764 767 769 762 763 767 762 756 758 759 760 762 749 725 708 696 689 691 688 683 682 681 681 680 677 676 674 671 670 671 673 675 674 674 675 676 678 680 682 684 685 687 689 690 691 693 694 697 699 701 705 709 711 713 714 717 721 724 726 729 731 734 736 737 739 740 742 744 746 747 749 751 753 756 759 761 764 766 768 771 774 777 780 782 783 784 786 787 789 791 792 794 795 794 795 796
766 769 765 758 754 755 761 761 754 761 767 752 739 733 719 706 697 689 690 687 679 678 679 680 680 677 677 675 670 670 670 671 672 672 674 675 674 675 677 679 681 683 684 685 685 686 687 690 693 695 698 701 703 705 707 710 714 716 718 720 723 725 727 729 730 733 736 738 741 743 745 747 749 751 753 755 758 760 763 765 767 769 773 775 778 780 781 783 784 786 787 789 790 792 792 793 794
760 763 755 751 755 755 761 769 764 764 766 747 729 724 718 717 708 692 688 686 680 677 679 682 680 678 678 675 671 670 670 671 674 674 675 676 674 674 675 677 679 679 680 681 682 684 687 689 691 693 696 696 697 699 703 707 709 711 713 714 717 718 720 723 726 729 733 735 737 739 741 744 746 749 752 754 756 758 760 763 764 766 768 771 773 775 777 779 781 782 783 785 787 789 790 790 791
752 752 748 751 758 756 758 767 767 765 762 748 733 723 717 717 708 694 690 688 683 681 679 679 677 674 676 674 671 670 670 671 673 674 676 676 675 674 674 676 677 678 679 680 682 686 687 689 690 692 692 692 695 699 702 704 706 707 708 709 712 714 716 719 722 726 729 730 732 734 737 740 743 746 749 752 755 757 759 761 763 765 766 767 769 771 774 775 777 778 779 781 783 785 786 787 789
754 753 753 752 751 749 750 752 753 753 752 745 737 728 716 705 697 692 688 684 684 682 677 676 676 673 672 671 669 670 672 674 674 673 674 674 674 674 673 674 675 676 679 681 683 684 684 687 689 690 691 692 694 696 697 700 702 703 705 707 709 710 712 715 718 722 724 725 728 731 734 736 739 743 746 749 752 754 757 759 761 764 765 765 766 767 770 771 773 774 775 776 778 780 782 784 786
757 757 756 755 751 747 747 746 741 742 745 742 739 733 716 697 688 686 682 680 683 680 675 675 675 674 672 669 668 670 672 674 675 674 673 673 673 672 672 673 674 676 678 680 680 680 682 684 685 686 688 690 690 690 692 694 696 699 701 703 704 706 708 711 714 717 719 721 725 727 730 733 735 738 741 744 748 750 754 756 759 762 763 764 764 765 766 767 769 771 771 773 774 776 778 780 783
753 755 752 750 748 746 749 747 735 732 735 733 733 733 717 694 684 680 678 678 677 674 674 674 674 675 674 670 668 669 670 670 669 671 672 671 671 671 672 673 674 675 676 676 677 678 679 680 680 682 684 685 685 685 686 687 689 693 694 696 699 702 705 708 710 712 714 717 720 722 726 729 731 734 736 740 743 746 750 753 755 758 761 763 764 763 764 765 766 767 768 769 770 772 775 777 780